User: anonymous   Login
Location: Lafig�re
(44.4503°N, 4.0357°E)
Time: 02:16:40
(UTC+00:00)
Language:

CSL-04 Debris - Orbit

View from above orbital plane
View from above orbital plane
View from above satellite
View from above satellite

Ground track
Ground track

The orbit data is extracted from the following two-line orbital elements,

1 25733U 99025D   20338.34308832  .00000168  00000-0  10711-3 0  9990
2 25733  98.9330   7.3183 0014727 199.1559 160.9063 14.16408264113675
Epoch (UTC): 03 December 2020 08:14:02
Eccentricity: 0.0014727
inclination: 98.9330°
perigee height: 827 km
apogee height: 848 km
right ascension of ascending node: 7.3183°
argument of perigee: 199.1559°
revolutions per day: 14.16408264
mean anomaly at epoch: 160.9063°
orbit number at epoch: 11367

The dashed part of the orbit path shows where the satellite is in the earth's shadow,  

DLR